Location: *
(51.1248°S, 108.4023°W)
Time: 21:04:38
(UTC+00:00)

COSMOS 2455 - Visible Passes

Search period start: 23 October 2021 00:00
Search period end: 02 November 2021 00:00
Orbit: 899 x 911 km, 67.1° (Epoch: 23 October)

Date Brightness Start Highest point End Pass type
(mag) Time Alt. Az. Time Alt. Az. Time Alt. Az.
23 Oct 5.0 04:14:22 10° SSW 04:18:47 20° SSE 04:23:12 10° ESE visible
23 Oct 3.7 06:00:27 10° SSW 06:06:17 46° SE 06:08:35 32° E visible
23 Oct 3.3 07:46:31 10° SW 07:51:43 46° W 07:51:43 46° W visible
24 Oct 5.2 02:30:54 10° SW 02:34:55 18° S 02:38:56 10° SE visible
24 Oct 4.8 04:18:29 10° SSW 04:23:09 22° SSE 04:27:47 10° ESE visible
24 Oct 3.3 06:04:26 10° SSW 06:10:25 56° SE 06:12:14 41° E visible
24 Oct 3.6 07:50:42 10° SW 07:55:21 35° W 07:55:21 35° W visible
25 Oct 5.2 02:35:23 10° SW 02:39:20 17° S 02:43:17 10° SE visible
25 Oct 4.6 04:22:33 10° SSW 04:27:29 25° SSE 04:32:22 10° E visible
25 Oct 3.0 06:08:27 10° SW 06:14:31 68° SE 06:15:55 51° ENE visible
25 Oct 4.0 07:54:56 10° SW 07:59:03 27° W 07:59:03 27° W visible
26 Oct 5.1 02:39:47 10° SW 02:43:45 17° S 02:47:42 10° SE visible
26 Oct 4.4 04:26:36 10° SSW 04:31:46 28° SSE 04:36:31 12° E visible
26 Oct 2.8 06:12:27 10° SW 06:18:33 84° SE 06:19:38 62° NE visible
26 Oct 4.4 07:59:19 10° WSW 08:02:46 21° W 08:02:46 21° W visible
27 Oct 5.1 02:44:06 10° SW 02:48:09 18° S 02:52:11 10° SE visible
27 Oct 4.2 04:30:36 10° SSW 04:36:02 32° SSE 04:40:16 15° E visible
27 Oct 2.7 06:16:29 10° SW 06:22:35 78° NW 06:23:23 66° N visible
27 Oct 4.7 08:03:55 10° WSW 08:06:31 16° W 08:06:31 16° W visible
28 Oct 5.0 02:48:21 10° SSW 02:52:33 19° SSE 02:56:45 10° SE visible
28 Oct 3.9 04:34:36 10° SSW 04:40:15 38° SE 04:44:02 19° E visible
28 Oct 2.9 06:20:34 10° SW 06:26:33 62° WNW 06:27:11 58° NNW visible
28 Oct 4.9 08:09:00 10° WSW 08:10:18 12° W 08:10:18 12° W visible
29 Oct 4.8 02:52:31 10° SSW 02:56:56 20° SSE 03:01:20 10° ESE visible
29 Oct 3.6 04:38:36 10° SSW 04:44:26 45° SE 04:47:52 23° ENE visible
29 Oct 3.2 06:24:40 10° SW 06:30:28 48° WNW 06:30:59 47° NW visible
30 Oct 4.7 02:56:38 10° SSW 03:01:17 22° SSE 03:05:55 10° ESE visible
30 Oct 3.3 04:42:36 10° SSW 04:48:34 55° SE 04:51:42 28° ENE visible
30 Oct 3.5 06:28:51 10° SW 06:34:21 37° WNW 06:34:50 37° NW visible
31 Oct 4.5 03:00:42 10° SSW 03:05:37 25° SSE 03:10:31 10° E visible
31 Oct 3.0 04:46:36 10° SW 04:52:40 68° SE 04:55:35 32° ENE visible
31 Oct 3.9 06:33:06 10° SW 06:38:11 29° WNW 06:38:43 29° WNW visible
01 Nov 4.3 03:04:45 10° SSW 03:09:55 28° SSE 03:15:03 10° E visible
01 Nov 2.8 04:50:37 10° SW 04:56:43 84° SE 04:59:29 35° NE visible
01 Nov 4.3 06:37:28 10° WSW 06:41:59 22° WNW 06:42:37 22° WNW visible
